Location: Audinghen
(50.8518°N, 1.6129°E)
Time: 03:47:32
(UTC+00:00)

Cosmos 1513 Rocket - Pass Details

Date: 07 August 2020
Orbit: 939 x 1009 km, 82.9° (Epoch: 23 September)

Event Time Altitude Azimuth Distance (km) Brightness Sun altitude
Exits shadow 00:37:36 44° 192° (SSW) 1,370 4.8 -22.3°
Maximum altitude 00:39:53 86° 280° (W) 1,016 4.5 -22.2°
Drops below altitude 10° 00:46:22 10° 9° (N) 2,801 8.1 -22.0°
Sets 00:48:55 0° 10° (N) 3,755 9.1 -21.9°
